パンスターズ彗星

C/2020 K7 ( PanSTARRS )

English version
Home page
Updated on September 18, 2021

---------------------------------------------------------------------

・ プロフィール

発見日 2020年5月30日
発見光度 20.2等
発見者 Pan-STARRS 1 telescope (Haleakala)

・ 写真集

・ 軌道要素

Epoch 2019 Nov. 13.0 TT = JDT 2458800.5
T 2019 Oct. 27.10968 TT                                 Rudenko
q   6.3816170            (2000.0)            P               Q
z  +0.0081589      Peri.  357.95688     +0.24830605     +0.82360875
 +/-0.0000000      Node   286.11172     -0.88105149     -0.02676404
e   0.9479330      Incl.   32.05692     -0.40260698     +0.56652653
From 96 observations 2020 May 30-2021 Aug. 30, mean residual 0".5.

・ 光度変化

        m1 = 7.0 + 5 logΔ + 10.0 log r

---------------------------------------------------------------------

軌道要素はM.P.E.C. 2021-R75に掲載されたものです。
光度グラフはComet for Windowsで作成したものです。

---------------------------------------------------------------------

Copyright(C) Seiichi Yoshida (comet@aerith.net). All rights reserved.